This demonstration page uses our WeatherBlox Daily Observations layout. Learn more.

Left ArrowRight Arrow

44.8408, -93.29828

Hourly Observations for May 17, 2016

Temp ( °F °C ) Dew Point ( °F °C ) Humidity (%) Winds ( mph kmh ) Pressure ( in mb ) Visibility ( mi km ) Precip ( " mm )
12:53 am 00:53 Clear 51 10.6 34 1.1 52 52 E 7 11 30.20 1023 10 16 0.00 0.00
1:53 am 01:53 Clear 50 10 31 -0.6 48 48 E 10 17 30.22 1023 10 16 0.00 0.00
2:53 am 02:53 Mostly Clear 48 8.9 30 -1.1 50 50 E 9 15 30.22 1024 10 16 0.00 0.00
3:53 am 03:53 Cloudy 49 9.4 30 -1.1 48 48 ENE 8 13 30.24 1024 10 16 0.00 0.00
4:53 am 04:53 Cloudy 49 9.4 30 -1.1 48 48 ENE 9 15 30.26 1025 10 16 0.00 0.00
5:53 am 05:53 Sunny 47 8.3 30 -1.1 52 52 NE 6 9 30.28 1025 10 16 0.00 0.00
5:57 am 05:57 Partly Cloudy 46 7.8 30 -1.1 54 54 NE 6 9 30.27 1025 10 16 0.00 0.00
6:53 am 06:53 Partly Cloudy 46 7.8 32 0 58 58 NE 6 9 30.30 1026 10 16 0.00 0.00
7:53 am 07:53 Mostly Cloudy 51 10.6 31 -0.6 46 46 E 7 11 30.32 1027 10 16 0.00 0.00
8:53 am 08:53 Mostly Sunny 53 11.7 29 -1.7 40 40 ESE 9 15 30.34 1028 10 16 0.00 0.00
9:53 am 09:53 Mostly Sunny 56 13.3 31 -0.6 39 39 ENE 8 13 30.35 1028 10 16 0.00 0.00
10:53 am 10:53 Sunny 57 13.9 28 -2.2 33 33 E 9 15 30.35 1028 10 16 0.00 0.00
11:53 am 11:53 Mostly Sunny 60 15.6 28 -2.2 30 30 NE 10 17 30.34 1028 10 16 0.00 0.00
12:53 pm 12:53 Mostly Sunny 60 15.6 26 -3.3 27 27 NE 13 20 30.34 1027 10 16 0.00 0.00
1:53 pm 13:53 Mostly Sunny 62 16.7 29 -1.7 29 29 ENE 12 19 30.32 1027 10 16 0.00 0.00
2:53 pm 14:53 Mostly Sunny 62 16.7 28 -2.2 28 28 NE 8 13 30.30 1026 10 16 0.00 0.00
3:53 pm 15:53 Mostly Sunny 65 18.3 30 -1.1 27 27 NNE 15 24 30.29 1026 10 16 0.00 0.00
4:53 pm 16:53 Mostly Sunny 64 17.8 28 -2.2 26 26 N 13 20 30.27 1025 10 16 0.00 0.00
5:53 pm 17:53 Mostly Sunny 62 16.7 28 -2.2 28 28 NNE 6 9 30.27 1025 10 16 0.00 0.00
6:53 pm 18:53 Mostly Sunny 62 16.7 28 -2.2 28 28 ENE 8 13 30.26 1025 10 16 0.00 0.00
7:53 pm 19:53 Mostly Sunny 61 16.1 28 -2.2 29 29 N 9 15 30.27 1025 10 16 0.00 0.00
8:53 pm 20:53 Mostly Clear 59 15 28 -2.2 31 31 NNE 6 9 30.28 1025 10 16 0.00 0.00
9:53 pm 21:53 Mostly Clear 56 13.3 29 -1.7 36 36 N 5 7 30.29 1026 10 16 0.00 0.00
10:53 pm 22:53 Mostly Clear 52 11.1 34 1.1 50 50 NNW 3 6 30.29 1026 10 16 0.00 0.00
11:53 pm 23:53 Clear 50 10 36 2.2 59 59 Calm 30.29 1026 10 16 0.00 0.00

Powered by AerisWeather